TimeCST,TemperatureF,Dew PointF,Humidity,Sea Level PressureIn,VisibilityMPH,Wind Direction,Wind SpeedMPH,Gust SpeedMPH,PrecipitationIn,Events,Conditions,WindDirDegrees,DateUTC
12:00 AM,63,59,83,29.86,12,ENE,8.1,,,,Clear,70,2013-04-23 06:00:00
12:00 AM,62.6,59.0,88,30.04,-9999.0,ENE,8.1,-,N/A,,Clear,70,2013-04-23 06:00:00
1:00 AM,64.4,59.0,83,30.02,-9999.0,ESE,6.9,-,N/A,,Clear,110,2013-04-23 07:00:00
2:00 AM,66.2,57.2,73,30.00,-9999.0,East,10.4,-,N/A,,Clear,100,2013-04-23 08:00:00
3:00 AM,66,57,66,29.85,12,East,9.2,,,,Clear,90,2013-04-23 09:00:00
3:00 AM,66.2,57.2,73,29.99,-9999.0,East,9.2,-,N/A,,Clear,90,2013-04-23 09:00:00
4:00 AM,64.4,57.2,77,30.00,-9999.0,East,3.5,-,N/A,,Clear,90,2013-04-23 10:00:00
5:00 AM,64.4,55.4,73,30.01,-9999.0,ENE,8.1,-,N/A,,Clear,60,2013-04-23 11:00:00
6:00 AM,64.4,57.2,77,30.01,-9999.0,NNE,3.5,-,N/A,,Clear,20,2013-04-23 12:00:00
7:00 AM,71.6,57.2,60,30.04,-9999.0,NNE,3.5,-,N/A,,Clear,30,2013-04-23 13:00:00
8:00 AM,75.2,55.4,50,30.05,-9999.0,ESE,9.2,-,N/A,,Clear,110,2013-04-23 14:00:00
9:00 AM,77,53,33,29.87,12,ESE,11.5,,,,Clear,110,2013-04-23 15:00:00
9:00 AM,78.8,53.6,42,30.05,-9999.0,ESE,11.5,-,N/A,,Clear,110,2013-04-23 15:00:00
10:00 AM,80.6,51.8,37,30.04,-9999.0,East,11.5,-,N/A,,Clear,100,2013-04-23 16:00:00
11:00 AM,82.4,53.6,37,30.03,-9999.0,East,9.2,-,N/A,,Clear,100,2013-04-23 17:00:00
12:00 PM,84,53,24,29.82,12,East,10.4,,,,Scattered Clouds,80,2013-04-23 18:00:00
12:00 PM,84.2,53.6,35,30.00,6.2,East,10.4,-,N/A,,Partly Cloudy,80,2013-04-23 18:00:00
1:00 PM,86.0,53.6,33,29.97,6.2,ESE,8.1,-,N/A,,Partly Cloudy,120,2013-04-23 19:00:00
2:00 PM,86.0,53.6,33,29.96,6.2,ESE,5.8,-,N/A,,Partly Cloudy,110,2013-04-23 20:00:00
3:00 PM,83,65,45,29.79,12,SW,11.5,,,,Scattered Clouds,220,2013-04-23 21:00:00
3:00 PM,82.4,64.4,54,29.94,6.2,SW,11.5,-,N/A,,Scattered Clouds,220,2013-04-23 21:00:00
4:00 PM,78.8,66.2,65,29.94,6.2,WSW,11.5,-,N/A,,Scattered Clouds,240,2013-04-23 22:00:00
5:00 PM,77.0,66.2,69,29.96,6.2,WSW,11.5,-,N/A,,Scattered Clouds,240,2013-04-23 23:00:00
6:00 PM,73,66,73,29.82,12,WSW,8.1,,,,Partly Cloudy,240,2013-04-24 00:00:00
6:00 PM,73.4,66.2,78,29.98,6.2,WSW,8.1,-,N/A,,Scattered Clouds,240,2013-04-24 00:00:00
7:00 PM,73.4,66.2,78,30.01,6.2,West,5.8,-,N/A,,Scattered Clouds,270,2013-04-24 01:00:00
8:00 PM,71.6,64.4,78,30.02,6.2,NNE,2.3,-,N/A,,Scattered Clouds,20,2013-04-24 02:00:00
9:00 PM,70,60,62,29.87,12,East,3.5,,,,Scattered Clouds,90,2013-04-24 03:00:00
9:00 PM,69.8,60.8,73,30.04,6.2,East,3.5,-,N/A,,Partly Cloudy,90,2013-04-24 03:00:00
10:00 PM,68.0,59.0,73,30.05,6.2,NNE,4.6,-,N/A,,Partly Cloudy,30,2013-04-24 04:00:00
11:00 PM,69.8,55.4,60,30.03,6.2,East,9.2,-,N/A,,Partly Cloudy,80,2013-04-24 05:00:00